Wind_Speed
35 37 39 39 40 40 40 39 39 38 38 39 39 38 36 33 26 25 29 30 31 31 30 30 29 28 26 25 25 24 24 24 24 24 23 22 21 19 18 16 14 14 14
39 41 41 40 40 41 40 40 39 40 40 40 39 38 36 33 26 23 24 25 29 30 30 29 29 28 27 27 26 25 25 24 24 24 23 22 22 20 19 17 16 14 14
39 39 38 39 40 40 41 41 41 42 42 41 40 38 35 32 28 26 25 24 25 26 28 29 29 28 28 28 28 27 26 26 25 25 24 23 23 22 21 19 17 16 15
33 34 36 38 39 40 41 43 43 44 43 42 41 39 37 34 31 29 28 27 27 28 28 29 29 29 29 29 29 29 28 28 27 26 26 25 25 23 22 21 19 18 17
30 31 33 35 37 39 41 43 44 45 45 45 44 42 39 37 35 33 32 30 30 30 32 32 31 31 31 31 31 31 31 31 30 29 28 27 26 26 25 23 22 20 19
31 33 35 36 38 40 42 44 45 46 46 46 46 45 43 41 40 39 38 37 36 35 35 36 35 34 33 33 33 33 34 33 33 32 31 30 28 28 27 26 24 23 21
33 35 37 39 40 41 42 44 44 45 46 47 47 47 47 46 45 44 43 43 42 41 41 40 39 39 37 36 36 35 36 36 36 36 34 33 31 30 29 28 27 25 24
36 38 39 39 40 41 43 44 46 47 48 49 50 50 50 50 50 49 49 48 48 47 47 46 45 44 43 42 40 39 38 38 39 39 38 37 35 33 31 30 29 28 27
39 40 41 42 43 44 45 47 48 48 49 49 49 49 49 49 49 49 51 52 53 53 53 53 52 51 49 48 46 45 43 42 42 42 42 41 39 36 35 33 32 30 28
43 44 45 47 48 49 50 50 49 48 47 46 45 44 44 45 46 46 48 50 53 55 58 59 58 57 56 54 53 51 49 48 46 45 44 44 43 41 38 36 35 33 31
46 48 49 51 53 53 53 52 51 49 46 45 44 43 43 44 44 45 46 47 50 53 57 61 63 64 63 61 60 58 56 54 51 49 48 47 46 44 42 40 38 35 33
49 50 52 54 55 54 53 52 51 49 48 47 48 48 48 48 47 46 46 47 49 51 53 57 62 65 67 67 66 64 62 60 57 55 53 51 50 48 46 43 41 38 36
49 51 53 53 52 51 50 50 50 51 52 53 54 54 53 52 51 50 48 47 47 49 51 53 56 61 65 68 69 69 67 65 63 60 58 55 54 52 49 47 45 42 39
50 52 52 51 50 49 49 50 53 55 57 58 58 58 57 56 56 55 53 51 50 49 49 51 53 55 59 63 67 70 71 70 68 65 62 59 56 54 52 51 48 45 42
50 50 50 48 47 48 50 53 56 58 60 60 61 62 62 62 61 59 56 54 53 52 50 50 51 52 53 55 59 64 69 71 71 69 66 63 60 56 54 53 51 48 45
50 49 48 47 47 50 52 56 58 60 61 62 63 63 63 62 60 58 55 53 52 52 51 49 49 49 49 49 50 54 60 66 70 71 69 66 64 60 57 55 53 50 47
50 49 47 47 49 52 55 58 60 62 63 64 63 62 61 59 55 52 50 49 48 49 49 48 48 47 48 47 46 46 49 54 62 68 68 67 67 64 57 55 54 52 49
50 48 47 48 51 54 57 59 61 62 63 63 61 59 57 54 50 46 45 43 43 44 46 47 47 46 46 46 45 44 43 45 49 57 63 65 65 65 63 58 54 52 49
50 48 48 50 52 55 57 59 60 62 62 60 58 56 53 48 43 40 38 38 38 39 42 43 45 45 45 45 45 44 42 41 42 46 52 58 61 61 61 58 55 52 50
50 49 50 51 53 55 57 58 60 60 59 57 54 51 47 41 37 33 30 31 33 35 37 39 41 42 44 44 44 43 41 39 39 40 44 49 55 58 58 57 55 53 51
50 49 50 51 53 54 56 57 58 57 56 53 50 47 42 36 30 25 22 22 25 29 32 34 36 38 40 42 42 42 41 39 37 36 38 42 47 52 55 56 55 52 50
49 49 49 50 52 53 55 56 55 55 53 50 47 43 38 31 25 20 16 15 18 22 26 30 32 33 35 37 39 40 40 38 36 35 35 37 41 46 51 55 56 54 51
49 48 48 49 50 52 53 54 53 52 50 48 45 40 35 29 24 19 13 10 13 17 20 24 27 29 31 33 34 36 37 36 34 33 34 35 37 42 48 53 55 54 51
49 47 47 47 48 50 52 52 52 51 48 45 42 39 35 30 25 19 12 6 7 12 16 19 23 25 28 29 30 32 33 33 33 31 31 32 35 38 44 51 54 52 51
48 46 46 47 47 48 50 50 50 49 46 42 40 38 34 31 27 21 15 8 3 5 10 15 19 22 24 26 28 30 31 32 32 30 29 30 33 37 41 47 51 52 50
48 46 45 45 45 47 48 49 48 47 44 40 37 36 34 31 27 23 18 13 7 1 4 9 14 17 20 23 26 27 29 30 31 29 28 29 32 37 40 45 50 51 49
Wind_Direction
287 289 292 293 293 295 297 299 302 306 309 311 314 317 318 315 299 270 261 253 248 248 249 252 253 253 254 253 250 249 249 247 246 245 244 244 244 244 245 247 250 255 260
286 288 290 291 292 292 295 296 299 301 304 307 310 314 315 316 307 284 275 260 252 252 249 251 251 252 254 252 248 246 244 243 241 239 240 241 241 242 242 244 246 250 257
289 288 288 289 291 292 293 294 296 298 300 302 305 308 310 311 304 291 284 273 265 257 252 250 251 253 253 250 247 245 242 239 237 237 238 240 241 241 242 242 244 249 256
292 290 289 290 291 290 291 292 294 296 297 299 300 301 302 301 297 291 284 276 268 263 259 255 253 253 252 249 247 244 241 238 235 235 237 240 241 243 244 242 245 250 256
297 295 295 294 293 293 293 294 295 296 296 296 296 296 294 292 288 284 279 274 268 264 260 258 255 252 251 250 247 244 241 238 235 235 236 239 242 243 244 243 243 248 256
299 299 299 299 297 296 296 296 296 296 295 295 293 291 288 285 281 278 274 269 265 263 259 257 256 252 251 250 247 244 241 239 237 236 236 238 241 243 245 245 245 248 253
303 303 302 301 300 299 297 296 295 294 293 291 289 287 285 281 277 273 269 265 262 259 257 255 253 251 249 248 247 245 243 240 238 237 237 238 239 241 243 246 248 250 253
307 306 305 303 302 300 298 297 295 293 291 289 287 285 282 279 276 271 267 263 259 256 254 252 251 249 247 246 245 244 243 242 240 239 238 238 238 239 241 244 247 251 254
312 311 309 307 306 304 302 300 299 297 295 293 291 288 284 280 276 272 267 262 258 254 251 249 248 246 245 244 243 243 242 241 240 240 239 238 238 238 239 241 244 249 254
315 315 314 313 311 310 309 307 306 304 302 299 295 291 288 284 279 274 269 264 259 254 250 247 246 245 243 242 241 240 239 240 240 240 240 239 239 239 238 239 242 245 250
319 318 317 316 315 314 313 311 310 309 306 303 300 297 293 290 285 280 273 267 261 257 252 248 246 244 242 241 240 238 237 237 238 239 240 239 240 239 239 239 240 242 246
322 320 319 318 317 315 315 314 313 311 309 306 303 300 297 293 288 283 278 271 265 259 255 251 248 245 243 241 239 237 236 236 236 237 239 239 239 239 239 238 239 240 243
322 320 319 318 317 316 315 315 314 312 309 306 303 300 297 293 289 284 279 274 268 262 257 254 250 247 244 242 240 238 236 235 235 236 237 238 238 238 238 238 238 239 241
322 321 321 320 318 318 317 316 314 312 309 307 304 300 296 292 288 284 279 273 267 262 258 254 251 249 247 244 242 239 237 235 234 234 235 236 236 237 237 238 238 237 238
325 324 323 322 321 320 319 318 316 314 311 308 305 302 298 293 289 284 278 272 266 261 256 253 251 249 247 246 244 242 239 237 235 233 233 233 234 234 235 235 236 236 236
329 327 326 324 323 322 321 320 318 316 313 310 307 303 300 296 291 284 277 270 264 259 254 250 248 246 245 245 244 243 242 239 237 236 234 233 232 232 233 233 234 234 234
331 330 328 327 326 325 324 322 321 319 317 313 310 307 303 299 292 284 276 269 263 256 250 245 243 241 241 241 242 242 242 241 239 238 236 234 233 232 231 231 232 231 231
333 332 331 329 328 328 327 326 325 323 321 318 314 311 307 302 294 286 277 268 259 252 246 242 239 238 237 237 238 239 240 240 240 239 237 235 234 234 233 231 230 230 229
336 335 334 332 331 330 330 329 328 327 325 322 319 316 313 306 298 288 277 266 256 248 243 239 237 235 234 235 235 236 236 237 238 238 237 235 234 232 231 230 229 228 227
338 337 336 334 333 333 333 333 332 331 331 329 326 324 321 314 306 294 279 265 252 244 239 236 234 233 232 232 232 233 233 234 236 237 235 233 232 231 229 227 226 225 224
340 339 337 336 336 336 337 337 337 337 338 337 335 333 330 325 316 304 286 267 249 239 236 231 230 230 230 229 229 229 229 230 233 234 233 230 228 228 226 224 222 221 220
341 340 340 339 339 340 341 342 342 343 344 344 343 342 340 338 332 319 298 270 247 237 233 228 225 226 226 226 226 226 227 227 230 230 230 228 225 222 220 218 218 218 218
342 341 342 342 342 343 345 346 347 348 349 350 351 352 352 351 347 340 321 280 246 235 230 224 221 221 222 222 222 223 223 224 226 227 227 226 223 219 215 213 213 215 215
343 343 344 344 345 346 348 350 351 353 354 355 358 0 0 0 360 358 350 319 259 233 224 218 217 218 218 218 218 218 218 219 219 220 222 222 218 214 210 208 208 208 211
345 344 345 346 347 348 350 352 354 357 358 359 2 5 6 7 8 10 10 4 328 226 215 212 214 215 216 216 215 215 215 214 215 218 221 219 214 208 205 203 204 203 205
346 346 346 347 349 351 353 355 357 359 0 2 4 6 9 11 14 16 18 20 25 57 199 206 209 212 213 212 212 213 212 213 214 217 219 216 210 203 200 200 200 200 201
Height
5849 5847 5844 5841 5837 5834 5831 5827 5824 5821 5818 5815 5811 5806 5800 5794 5790 5790 5792 5792 5793 5795 5798 5801 5803 5805 5806 5808 5809 5810 5812 5813 5815 5817 5818 5820 5822 5824 5825 5827 5827 5829 5830
5842 5839 5836 5833 5829 5826 5823 5820 5817 5814 5811 5808 5804 5800 5796 5791 5787 5788 5787 5787 5789 5790 5792 5794 5796 5797 5799 5801 5802 5804 5805 5807 5808 5810 5812 5814 5817 5819 5821 5822 5824 5824 5826
5834 5831 5827 5824 5821 5818 5815 5812 5809 5806 5803 5800 5797 5794 5791 5788 5786 5785 5784 5784 5784 5785 5785 5787 5788 5790 5792 5793 5795 5797 5798 5800 5802 5804 5806 5808 5811 5813 5816 5817 5819 5820 5821
5826 5823 5820 5816 5813 5810 5807 5804 5801 5798 5795 5792 5789 5787 5784 5783 5781 5780 5779 5779 5779 5778 5779 5779 5781 5783 5784 5785 5787 5789 5791 5793 5795 5798 5800 5802 5805 5807 5810 5812 5814 5815 5816
5819 5816 5813 5809 5806 5802 5798 5795 5791 5788 5785 5782 5779 5777 5775 5774 5773 5772 5771 5771 5771 5770 5771 5772 5773 5774 5775 5776 5778 5780 5783 5785 5788 5790 5793 5795 5798 5800 5803 5806 5808 5810 5811
5814 5810 5806 5802 5797 5793 5789 5785 5781 5777 5773 5770 5767 5765 5763 5762 5762 5761 5761 5761 5761 5761 5761 5762 5763 5765 5766 5767 5769 5771 5774 5777 5779 5782 5785 5788 5791 5793 5795 5798 5801 5803 5805
5807 5802 5798 5793 5788 5783 5779 5774 5770 5765 5761 5757 5754 5751 5749 5748 5747 5747 5747 5747 5748 5749 5750 5750 5752 5754 5755 5757 5759 5762 5764 5767 5770 5773 5777 5780 5783 5786 5788 5790 5793 5796 5799
5798 5793 5788 5783 5778 5773 5767 5762 5757 5752 5747 5743 5739 5736 5734 5732 5731 5731 5731 5731 5732 5734 5735 5737 5739 5741 5743 5745 5748 5750 5753 5756 5760 5763 5767 5771 5774 5777 5780 5783 5786 5788 5791
5788 5782 5777 5771 5766 5760 5754 5748 5743 5737 5732 5727 5723 5719 5716 5714 5713 5712 5712 5712 5714 5716 5718 5720 5723 5726 5729 5732 5735 5738 5741 5744 5748 5752 5756 5760 5764 5768 5772 5775 5778 5781 5784
5777 5771 5764 5757 5751 5744 5738 5732 5726 5720 5715 5710 5706 5702 5699 5696 5694 5693 5693 5693 5694 5695 5697 5700 5704 5708 5712 5716 5720 5724 5727 5731 5735 5739 5744 5748 5753 5757 5761 5766 5769 5773 5776
5767 5759 5751 5743 5736 5729 5722 5715 5709 5704 5699 5695 5690 5686 5683 5679 5676 5675 5674 5673 5674 5674 5676 5679 5682 5687 5691 5697 5702 5707 5712 5716 5721 5726 5731 5736 5740 5746 5750 5755 5760 5764 5767
5755 5747 5739 5731 5723 5715 5708 5701 5695 5689 5684 5679 5675 5670 5666 5662 5659 5656 5654 5653 5653 5654 5655 5657 5660 5665 5670 5675 5681 5688 5694 5700 5705 5711 5716 5722 5727 5733 5738 5744 5749 5754 5758
5747 5738 5730 5721 5712 5704 5696 5689 5682 5675 5669 5663 5657 5652 5647 5643 5639 5636 5635 5633 5633 5633 5635 5636 5639 5643 5648 5653 5660 5667 5674 5681 5688 5695 5701 5707 5713 5719 5725 5731 5737 5743 5748
5738 5729 5719 5710 5701 5693 5685 5677 5669 5660 5653 5645 5638 5632 5627 5622 5618 5615 5612 5612 5612 5613 5614 5616 5619 5622 5626 5632 5638 5645 5653 5661 5669 5677 5684 5691 5698 5705 5711 5718 5724 5731 5737
5729 5719 5709 5699 5690 5682 5673 5664 5655 5645 5636 5627 5618 5611 5604 5599 5594 5590 5588 5587 5588 5590 5593 5596 5600 5603 5608 5612 5617 5624 5632 5641 5649 5657 5666 5674 5682 5689 5696 5703 5710 5718 5725
5719 5709 5699 5689 5680 5671 5662 5651 5641 5629 5618 5608 5598 5588 5580 5573 5567 5563 5562 5562 5564 5567 5570 5575 5580 5585 5590 5595 5600 5605 5612 5621 5629 5638 5647 5656 5664 5672 5680 5688 5696 5704 5712
5710 5699 5689 5680 5670 5660 5650 5638 5626 5614 5601 5589 5577 5566 5556 5548 5541 5538 5537 5538 5540 5544 5549 5555 5560 5566 5573 5579 5584 5590 5596 5603 5611 5620 5629 5638 5647 5655 5664 5673 5681 5690 5699
5701 5691 5680 5671 5660 5650 5638 5625 5612 5599 5584 5570 5557 5545 5534 5525 5519 5515 5514 5516 5519 5523 5529 5535 5543 5549 5556 5563 5569 5575 5581 5588 5594 5602 5611 5621 5630 5639 5648 5658 5667 5678 5687
5693 5682 5671 5661 5651 5640 5627 5614 5600 5585 5570 5555 5541 5528 5516 5506 5500 5496 5495 5496 5500 5505 5512 5519 5526 5534 5541 5548 5555 5561 5568 5575 5581 5587 5595 5604 5614 5624 5634 5645 5655 5665 5675
5684 5674 5664 5653 5643 5631 5618 5604 5589 5574 5558 5542 5527 5514 5501 5491 5484 5480 5479 5481 5484 5490 5497 5505 5512 5520 5527 5534 5542 5549 5556 5563 5569 5575 5581 5589 5599 5608 5619 5631 5643 5654 5664
5677 5667 5657 5646 5635 5623 5610 5596 5580 5565 5549 5533 5518 5504 5492 5482 5475 5471 5469 5470 5473 5479 5485 5493 5501 5508 5516 5523 5530 5537 5545 5551 5557 5563 5569 5575 5584 5594 5606 5619 5631 5642 5652
5672 5662 5651 5640 5628 5616 5603 5589 5574 5558 5542 5527 5513 5499 5487 5478 5471 5466 5464 5464 5467 5472 5477 5484 5491 5498 5505 5512 5519 5527 5534 5541 5548 5553 5559 5564 5572 5581 5592 5606 5619 5630 5641
5667 5657 5646 5635 5623 5611 5598 5584 5569 5554 5539 5525 5511 5498 5487 5478 5471 5465 5462 5462 5464 5467 5472 5477 5484 5491 5498 5504 5511 5518 5525 5532 5538 5544 5549 5555 5562 5570 5580 5593 5607 5619 5631
5662 5652 5642 5631 5619 5607 5594 5580 5566 5552 5538 5525 5512 5500 5490 5481 5473 5467 5464 5462 5463 5465 5469 5474 5480 5486 5492 5498 5504 5510 5517 5524 5530 5536 5542 5547 5554 5562 5571 5583 5596 5609 5622
5658 5648 5637 5627 5616 5604 5592 5578 5565 5551 5538 5526 5515 5504 5494 5485 5477 5471 5467 5465 5464 5465 5468 5472 5477 5482 5487 5493 5498 5504 5511 5517 5523 5529 5535 5541 5547 5554 5563 5575 5587 5600 5613
5655 5644 5634 5624 5613 5602 5590 5577 5565 5552 5540 5528 5518 5508 5499 5491 5483 5477 5473 5470 5468 5468 5470 5472 5475 5479 5484 5489 5494 5499 5505 5511 5518 5524 5529 5535 5541 5549 5557 5568 5580 5593 5606